EW7146 Weather Reports


Display with metric or nautical units.
time (UTC)temp
F
wind
direction
speed
MPH
gust
MPH
rain 1hr
in
rain 24hr
in
rain mn
in
humidity
%
barometer
mb
20260505230556 86 281 2.0 5.0 0.00 0.00 0.00 21 1021.8
20260505230057 87 281 2.0 5.0 0.00 0.00 0.00 21 1021.8
20260505225557 86 3 0.0 5.0 0.00 0.00 0.00 22 1021.8
20260505225057 86 62 2.0 5.0 0.00 0.00 0.00 22 1021.8
20260505224556 85 269 1.0 6.0 0.00 0.00 0.00 20 1021.9
20260505224056 85 320 1.0 6.0 0.00 0.00 0.00 21 1021.9
20260505223556 85 62 1.0 6.0 0.00 0.00 0.00 21 1022.0
20260505223057 85 326 2.0 13.0 0.00 0.00 0.00 21 1022.1
20260505222556 85 274 2.0 13.0 0.00 0.00 0.00 21 1022.1
20260505222057 85 279 2.0 7.0 0.00 0.00 0.00 21 1022.1
20260505221556 85 283 1.0 5.0 0.00 0.00 0.00 21 1022.2
20260505221056 85 100 3.0 5.0 0.00 0.00 0.00 19 1022.2
20260505220557 85 279 1.0 6.0 0.00 0.00 0.00 20 1022.2
20260505220055 85 337 2.0 11.0 0.00 0.00 0.00 21 1022.2
20260505215556 84 271 4.0 12.0 0.00 0.00 0.00 20 1022.3
20260505215055 84 292 6.0 12.0 0.00 0.00 0.00 20 1022.3
20260505214556 83 185 4.0 9.0 0.00 0.00 0.00 21 1022.3
20260505214055 83 226 4.0 9.0 0.00 0.00 0.00 20 1022.5
20260505213830 83 312 2.0 12.0 0.00 0.00 0.00 20 1022.6
20260505213551 83 321 2.0 12.0 0.00 0.00 0.00 21 1022.6
20260505212600 84 278 7.0 11.0 0.00 0.00 0.00 19 1022.6
20260505212055 84 258 3.0 9.0 0.00 0.00 0.00 20 1022.7
20260505211554 84 282 3.0 7.0 0.00 0.00 0.00 20 1022.7
20260505211322 84 295 4.0 11.0 0.00 0.00 0.00 19 1022.7
20260505210824 83 293 5.0 11.0 0.00 0.00 0.00 19 1022.9
20260505210320 84 281 4.0 11.0 0.00 0.00 0.00 20 1022.9
20260505205553 83 278 4.0 12.0 0.00 0.00 0.00 20 1023.0
20260505205053 83 275 5.0 15.0 0.00 0.00 0.00 20 1023.0
20260505204819 83 268 7.0 15.0 0.00 0.00 0.00 21 1023.2
20260505204053 84 265 8.0 12.0 0.00 0.00 0.00 21 1023.2
20260505203555 83 238 4.0 12.0 0.00 0.00 0.00 20 1023.2
20260505203053 83 278 6.0 12.0 0.00 0.00 0.00 21 1023.1
20260505202554 82 250 6.0 12.0 0.00 0.00 0.00 22 1023.2
20260505202052 82 268 5.0 12.0 0.00 0.00 0.00 21 1023.2
20260505202040 82 288 5.0 14.0 0.00 0.00 0.00 21 1023.3
20260505201053 82 290 4.0 14.0 0.00 0.00 0.00 21 1023.3
20260505200552 83 258 1.0 7.0 0.00 0.00 0.00 24 1023.3
20260505200053 83 55 0.0 5.0 0.00 0.00 0.00 22 1023.3
20260505195812 82 73 1.0 5.0 0.00 0.00 0.00 25 1023.5
20260505195054 83 47 1.0 7.0 0.00 0.00 0.00 24 1023.5
20260505194551 82 195 4.0 7.0 0.00 0.00 0.00 24 1023.5
20260505194053 82 135 2.0 7.0 0.00 0.00 0.00 25 1023.5
20260505193552 81 118 3.0 7.0 0.00 0.00 0.00 26 1023.6
20260505193052 80 138 4.0 6.0 0.00 0.00 0.00 26 1023.5
20260505192816 80 172 4.0 6.0 0.00 0.00 0.00 26 1023.6
20260505192053 80 193 4.0 6.0 0.00 0.00 0.00 26 1023.7
20260505191554 79 90 4.0 6.0 0.00 0.00 0.00 26 1023.8
20260505191052 79 107 3.0 5.0 0.00 0.00 0.00 27 1023.9
20260505190557 79 85 2.0 6.0 0.00 0.00 0.00 28 1023.9
20260505190052 78 133 3.0 7.0 0.00 0.00 0.00 28 1024.0
20260505185552 77 166 1.0 7.0 0.00 0.00 0.00 29 1024.0
20260505185051 78 130 4.0 6.0 0.00 0.00 0.00 29 1024.2
20260505184551 76 124 1.0 5.0 0.00 0.00 0.00 30 1024.1
20260505184051 76 217 2.0 5.0 0.00 0.00 0.00 29 1024.2
20260505183547 76 59 1.0 9.0 0.00 0.00 0.00 30 1024.4
20260505183051 76 96 4.0 9.0 0.00 0.00 0.00 29 1024.4
20260505182556 76 100 2.0 7.0 0.00 0.00 0.00 32 1024.4
20260505182052 75 82 3.0 9.0 0.00 0.00 0.00 32 1024.4
20260505181550 74 62 3.0 9.0 0.00 0.00 0.00 32 1024.5
20260505181100 74 100 3.0 9.0 0.00 0.00 0.00 32 1024.6
20260505180550 74 130 3.0 6.0 0.00 0.00 0.00 33 1024.6
20260505180310 74 134 3.0 5.0 0.00 0.00 0.00 34 1024.6
20260505175547 73 71 3.0 7.0 0.00 0.00 0.00 35 1024.7
20260505175046 72 93 3.0 7.0 0.00 0.00 0.00 34 1024.7
20260505174550 72 111 3.0 6.0 0.00 0.00 0.00 36 1024.8
20260505174529 71 59 3.0 7.0 0.00 0.00 0.00 39 1024.8
20260505174147 72 58 2.0 6.0 0.00 0.00 0.00 39 1024.8
20260505173050 71 80 1.0 7.0 0.00 0.00 0.00 40 1024.9
20260505172549 71 110 2.0 7.0 0.00 0.00 0.00 40 1024.9
20260505172054 70 65 3.0 6.0 0.00 0.00 0.00 42 1024.9
20260505171545 70 133 4.0 6.0 0.00 0.00 0.00 42 1024.9
20260505171046 69 71 3.0 5.0 0.00 0.00 0.00 41 1024.9
20260505170548 69 52 4.0 6.0 0.00 0.00 0.00 41 1025.0
20260505170050 69 113 3.0 6.0 0.00 0.00 0.00 41 1025.0
20260505165548 69 41 3.0 5.0 0.00 0.00 0.00 43 1025.1
20260505165050 68 117 1.0 5.0 0.00 0.00 0.00 40 1025.2
20260505164549 68 114 2.0 5.0 0.00 0.00 0.00 41 1025.2
20260505164048 67 92 2.0 5.0 0.00 0.00 0.00 41 1025.1
20260505163553 67 76 2.0 5.0 0.00 0.00 0.00 41 1025.1
20260505163308 67 89 2.0 5.0 0.00 0.00 0.00 42 1025.2
20260505162548 66 72 2.0 7.0 0.00 0.00 0.00 44 1025.1
20260505162110 66 62 2.0 7.0 0.00 0.00 0.00 44 1025.2
20260505161552 65 124 2.0 6.0 0.00 0.00 0.00 44 1025.2
20260505161053 65 116 2.0 6.0 0.00 0.00 0.00 48 1025.1
20260505160858 65 55 2.0 5.0 0.00 0.00 0.00 47 1025.3
20260505153047 63 111 0.0 3.0 0.00 0.00 0.00 49 1025.4
20260505152546 62 147 0.0 3.0 0.00 0.00 0.00 50 1025.4
20260505152046 62 125 0.0 2.0 0.00 0.00 0.00 52 1025.5
20260505151548 62 106 0.0 0.0 0.00 0.00 0.00 53 1025.4
20260505151305 61 111 0.0 0.0 0.00 0.00 0.00 55 1025.5
20260505150543 60 130 0.0 0.0 0.00 0.00 0.00 56 1025.6
20260505130305 43 282 0.0 0.0 0.00 0.00 0.00 82 1024.9
20260505124545 44 282 0.0 0.0 0.00 0.00 0.00 80 1024.7
20260505124043 44 282 0.0 0.0 0.00 0.00 0.00 80 1024.8
20260505123542 44 250 0.0 0.0 0.00 0.00 0.00 79 1024.7
20260505123042 44 250 0.0 0.0 0.00 0.00 0.00 78 1024.7
20260505122542 44 250 0.0 0.0 0.00 0.00 0.00 79 1024.7
20260505122042 45 250 0.0 0.0 0.00 0.00 0.00 78 1024.6
20260505121542 45 250 0.0 0.0 0.00 0.00 0.00 78 1024.7
20260505121042 45 226 0.0 0.0 0.00 0.00 0.00 78 1024.6
20260505120543 45 226 0.0 0.0 0.00 0.00 0.00 77 1024.6
20260505120042 45 226 0.0 0.0 0.00 0.00 0.00 76 1024.6
20260505115543 46 226 0.0 0.0 0.00 0.00 0.00 75 1024.6
20260505115041 46 226 0.0 0.0 0.00 0.00 0.00 75 1024.5
20260505114542 46 214 0.0 0.0 0.00 0.00 0.00 75 1024.5
20260505114041 46 214 0.0 0.0 0.00 0.00 0.00 75 1024.6
20260505113805 46 214 0.0 0.0 0.00 0.00 0.00 74 1024.4
20260505113042 47 212 0.0 0.0 0.00 0.00 0.00 72 1024.4
20260505112541 47 212 0.0 1.0 0.00 0.00 0.00 71 1024.4
20260505112304 48 212 0.0 1.0 0.00 0.00 0.00 72 1024.4
20260505111540 47 212 0.0 2.0 0.00 0.00 0.00 72 1024.4
20260505111039 47 214 1.0 2.0 0.00 0.00 0.00 73 1024.4
20260505111023 47 210 0.0 0.0 0.00 0.00 0.00 72 1024.4
20260505102039 50 234 0.0 2.0 0.00 0.00 0.00 67 1024.1
20260505101539 50 221 1.0 2.0 0.00 0.00 0.00 66 1024.0
20260505101039 50 180 2.0 2.0 0.00 0.00 0.00 67 1024.0
20260505100539 50 133 0.0 1.0 0.00 0.00 0.00 66 1023.9
20260505100044 51 214 0.0 2.0 0.00 0.00 0.00 65 1023.9
20260505095539 51 214 0.0 2.0 0.00 0.00 0.00 65 1023.9
20260505095039 51 209 0.0 1.0 0.00 0.00 0.00 65 1023.9
20260505094539 51 207 0.0 1.0 0.00 0.00 0.00 64 1023.9
20260505094040 51 209 0.0 1.0 0.00 0.00 0.00 64 1023.8
20260505093538 51 216 1.0 1.0 0.00 0.00 0.00 63 1023.8
20260505093038 52 213 0.0 1.0 0.00 0.00 0.00 63 1023.7
20260505092538 52 203 0.0 2.0 0.00 0.00 0.00 63 1023.7
20260505092038 52 196 1.0 2.0 0.00 0.00 0.00 62 1023.8
20260505091539 52 213 0.0 2.0 0.00 0.00 0.00 62 1023.7
20260505091038 52 212 1.0 2.0 0.00 0.00 0.00 62 1023.7
20260505090538 53 166 1.0 2.0 0.00 0.00 0.00 61 1023.6
20260505090037 53 206 1.0 2.0 0.00 0.00 0.00 61 1023.6
20260505085802 52 224 0.0 0.0 0.00 0.00 0.00 62 1023.6
20260505085038 52 217 0.0 0.0 0.00 0.00 0.00 62 1023.5
20260505084806 52 209 0.0 0.0 0.00 0.00 0.00 62 1023.6
20260505084043 53 233 0.0 0.0 0.00 0.00 0.00 61 1023.5
20260505083538 53 227 0.0 2.0 0.00 0.00 0.00 60 1023.5
20260505083038 53 228 0.0 3.0 0.00 0.00 0.00 59 1023.5
20260505082536 53 271 1.0 3.0 0.00 0.00 0.00 60 1023.4
20260505082037 53 226 1.0 2.0 0.00 0.00 0.00 61 1023.4
20260505081536 53 261 0.0 2.0 0.00 0.00 0.00 60 1023.3
20260505081038 54 199 1.0 3.0 0.00 0.00 0.00 59 1023.4
20260505080759 54 221 1.0 3.0 0.00 0.00 0.00 59 1023.4
20260505080305 54 203 0.0 2.0 0.00 0.00 0.00 59 1023.3
20260505075536 54 212 2.0 2.0 0.00 0.00 0.00 58 1023.3
20260505075257 54 207 1.0 2.0 0.00 0.00 0.00 58 1023.3
20260505074536 55 204 1.0 4.0 0.00 0.00 0.00 57 1023.3
20260505074035 55 190 3.0 4.0 0.00 0.00 0.00 57 1023.2
20260505073538 55 212 1.0 3.0 0.00 0.00 0.00 57 1023.2
20260505073529 55 202 1.0 2.0 0.00 0.00 0.00 57 1023.2
20260505072537 55 219 1.0 2.0 0.00 0.00 0.00 56 1023.2
20260505072520 56 207 2.0 3.0 0.00 0.00 0.00 55 1023.1
20260505071535 56 213 2.0 3.0 0.00 0.00 0.00 55 1023.0
20260505071036 56 165 2.0 3.0 0.00 0.00 0.00 54 1022.9
20260505070535 56 217 1.0 3.0 0.00 0.00 0.00 54 1022.9
20260505070036 57 221 1.0 3.0 0.00 0.00 0.00 54 1022.7
20260505065756 57 259 0.0 2.0 0.00 0.00 0.00 53 1022.7
20260505065036 57 251 1.0 2.0 0.00 0.00 0.00 54 1022.6
20260505064534 57 269 1.0 2.0 0.00 0.00 0.00 52 1022.6
20260505064034 58 190 1.0 3.0 0.00 0.00 0.00 52 1022.6
20260505063534 58 213 1.0 3.0 0.00 0.00 0.00 51 1022.4
20260505063034 58 235 0.0 2.0 0.00 0.00 0.00 51 1022.5
20260505062535 58 165 0.0 2.0 0.00 0.00 0.00 51 1022.5
20260505062034 58 219 1.0 2.0 0.00 0.00 0.00 52 1022.4
20260505061805 58 228 0.0 3.0 0.00 0.00 0.00 51 1022.3
20260505061033 59 207 0.0 3.0 0.00 0.00 0.00 50 1022.3
20260505060535 60 172 1.0 3.0 0.00 0.00 0.00 49 1022.2
20260505060300 60 190 1.0 3.0 0.00 0.00 0.00 47 1022.2
20260505055533 61 172 0.0 2.0 0.00 0.00 0.00 46 1022.1
20260505055034 61 161 0.0 3.0 0.00 0.00 0.00 45 1022.1
20260505054533 61 144 2.0 3.0 0.00 0.00 0.00 47 1022.1
20260505054033 61 141 0.0 3.0 0.00 0.00 0.00 47 1021.9
20260505053758 62 117 1.0 2.0 0.00 0.00 0.00 46 1021.9
20260505053033 62 168 0.0 2.0 0.00 0.00 0.00 46 1021.9
20260505052752 61 152 0.0 2.0 0.00 0.00 0.00 47 1021.8
20260505052034 61 157 1.0 1.0 0.00 0.00 0.00 46 1021.7
20260505051532 61 155 0.0 1.0 0.00 0.00 0.00 47 1021.7
20260505051033 61 164 0.0 2.0 0.00 0.00 0.00 48 1021.7
20260505050533 61 192 1.0 2.0 0.00 0.00 0.00 47 1021.7
20260505041531 65 234 1.0 2.0 0.00 0.00 0.00 43 1021.0
20260505041031 65 234 1.0 2.0 0.00 0.00 0.00 44 1020.9
20260505040530 65 233 0.0 2.0 0.00 0.00 0.00 45 1020.8
20260505040032 65 257 2.0 2.0 0.00 0.00 0.00 43 1020.7
20260505035530 65 214 0.0 0.0 0.00 0.00 0.00 44 1020.7
20260505035032 65 214 0.0 0.0 0.00 0.00 0.00 43 1020.6
20260505034802 66 214 0.0 0.0 0.00 0.00 0.00 45 1020.5
20260505034030 66 214 0.0 0.0 0.00 0.00 0.00 44 1020.4
20260505033531 67 214 0.0 1.0 0.00 0.00 0.00 44 1020.4
20260505033030 67 214 0.0 2.0 0.00 0.00 0.00 41 1020.3
20260505032531 67 220 1.0 2.0 0.00 0.00 0.00 42 1020.2
20260505032029 68 238 1.0 3.0 0.00 0.00 0.00 42 1020.2
20260505031532 69 209 0.0 3.0 0.00 0.00 0.00 39 1020.1
20260505031030 69 210 1.0 2.0 0.00 0.00 0.00 39 1019.9
20260505030803 69 231 1.0 2.0 0.00 0.00 0.00 40 1019.9
20260505030029 69 220 0.0 2.0 0.00 0.00 0.00 38 1019.8
20260505025529 70 252 1.0 2.0 0.00 0.00 0.00 39 1019.8
20260505025030 70 219 0.0 1.0 0.00 0.00 0.00 37 1019.6
20260505024528 70 219 0.0 1.0 0.00 0.00 0.00 37 1019.8
20260505024259 71 223 1.0 2.0 0.00 0.00 0.00 37 1019.6
20260505023529 71 223 0.0 2.0 0.00 0.00 0.00 37 1019.6
20260505023306 71 234 0.0 2.0 0.00 0.00 0.00 37 1019.5
20260505022529 72 243 1.0 2.0 0.00 0.00 0.00 37 1019.6
20260505022030 73 255 1.0 2.0 0.00 0.00 0.00 36 1019.5
20260505021529 74 258 0.0 2.0 0.00 0.00 0.00 34 1019.4
20260505021028 74 255 1.0 2.0 0.00 0.00 0.00 34 1019.4
20260505020528 76 278 0.0 1.0 0.00 0.00 0.00 33 1019.4
20260505020516 77 261 0.0 1.0 0.00 0.00 0.00 31 1019.5
20260505015529 78 295 0.0 0.0 0.00 0.00 0.00 29 1019.4
20260505015029 79 295 0.0 4.0 0.00 0.00 0.00 27 1019.3
20260505014531 80 295 0.0 4.0 0.00 0.00 0.00 26 1019.3
20260505014030 81 258 0.0 7.0 0.00 0.00 0.00 25 1019.2
20260505013532 81 309 2.0 7.0 0.00 0.00 0.00 23 1019.3
20260505013028 81 289 2.0 5.0 0.00 0.00 0.00 23 1019.3
20260505012527 81 281 0.0 4.0 0.00 0.00 0.00 24 1019.3
20260505012027 81 293 2.0 6.0 0.00 0.00 0.00 23 1019.3
20260505012010 82 274 2.0 7.0 0.00 0.00 0.00 22 1019.4
20260505011028 82 243 3.0 7.0 0.00 0.00 0.00 22 1019.4
20260505010801 83 321 5.0 7.0 0.00 0.00 0.00 21 1019.4
20260505010029 83 285 1.0 6.0 0.00 0.00 0.00 23 1019.5
20260505005529 83 276 2.0 5.0 0.00 0.00 0.00 23 1019.4
20260505005030 83 268 1.0 5.0 0.00 0.00 0.00 22 1019.5
20260505004526 82 254 1.0 6.0 0.00 0.00 0.00 23 1019.5
20260505004041 82 285 2.0 7.0 0.00 0.00 0.00 23 1019.4
20260505003531 82 265 2.0 7.0 0.00 0.00 0.00 23 1019.5
20260505003025 82 310 1.0 4.0 0.00 0.00 0.00 22 1019.4
20260505002528 82 264 1.0 4.0 0.00 0.00 0.00 23 1019.5
20260505002026 83 265 1.0 7.0 0.00 0.00 0.00 23 1019.6
20260505001528 83 262 2.0 7.0 0.00 0.00 0.00 23 1019.5
20260505001026 83 262 2.0 7.0 0.00 0.00 0.00 23 1019.4
20260505000527 84 290 2.0 7.0 0.00 0.00 0.00 22 1019.5
20260505000028 84 49 3.0 7.0 0.00 0.00 0.00 22 1019.5
20260504235755 84 259 4.0 7.0 0.00 0.00 0.00 22 1019.5
20260504235031 86 296 2.0 5.0 0.00 0.00 0.00 21 1019.5
20260504234526 85 268 1.0 5.0 0.00 0.00 0.00 22 1019.5
20260504234030 84 276 1.0 6.0 0.00 0.00 0.00 24 1019.5
20260504233525 84 306 2.0 11.0 0.00 0.00 0.00 22 1019.6
20260504233026 84 292 3.0 11.0 0.00 0.00 0.00 21 1019.5
20260504232530 85 283 2.0 7.0 0.00 0.00 0.00 21 1019.6
20260504232258 85 333 3.0 7.0 0.00 0.00 0.00 21 1019.5
20260504231525 84 306 4.0 7.0 0.00 0.00 0.00 22 1019.5
20260504231025 84 329 0.0 6.0 0.00 0.00 0.00 22 1019.6